Preview of NWS' New Version of Forecast
This preview is not operational and should not be used for support decisions.

Regional Weather Roundup (RWR)

Issued by National Weather Service (NWS)

                            
000
ASUS43 KMKX 240920
RWRWI 

WISCONSIN REGIONAL WEATHER ROUNDUP
NATIONAL WEATHER SERVICE MILWAUKEE/SULLIVAN WI
400 AM CDT WED APR 24 2019

NOTE: "FAIR" INDICATES FEW OR NO CLOUDS BELOW 12,000 FEET WITH NO
SIGNIFICANT WEATHER AND/OR OBSTRUCTIONS TO VISIBILITY.

WIZ001-002-006>008-014>016-023>028-241000-
NORTHWEST WISCONSIN
  
CITY           SKY/WX    TMP DP  RH WIND       PRES   REMARKS
SUPERIOR ARPT  MOCLDY    36  30  80 CALM      29.90F                  
ASHLAND        FAIR      39  35  86 S6        29.90F WCI  35          
HAYWARD        FAIR      49  37  63 S3        29.92F                  
SIREN          FAIR      49  38  65 S5        29.90F                  
CUMBERLAND     FAIR      45  32  61 S5        29.92F                  
RICE LAKE      FAIR      42  32  67 SE3       29.94F                  
CHETEK         FAIR      36  36 100 CALM      29.93F                  
LADYSMITH      FAIR      40  34  78 SE7       29.96F                  
EAU CLAIRE     FAIR      36  35  96 CALM      29.94F                  
MENOMONIE      FAIR     N/A N/A N/A E3        29.94S                  
NEW RICHMOND   FAIR      46  35  64 S7        29.92F                  
OSCEOLA        FAIR      47  38  70 S3        29.94F                  
$$
 
WIZ003>005-009-010-017-018-241000-
NORTH CENTRAL WISCONSIN
  
CITY           SKY/WX    TMP DP  RH WIND       PRES   REMARKS
MANITOWISH WTR FAIR      40  28  63 S7        29.94F                  
ARBOR VITAE    FAIR      39  30  70 S3        29.95F                  
WOODRUFF       FAIR      39  30  70 S3        29.95F                  
RHINELANDER    FAIR      41  32  70 S5        29.97F                  
EAGLE RIVER    FAIR      37  30  77 S3        29.96S                  
LAND O LAKES   FAIR      37  29  72 S3        29.97F                  
PHILLIPS       FAIR      44  29  57 S8        29.94F                  
TOMAHAWK       FAIR      31  28  91 CALM      29.98S                  
MEDFORD        FAIR      40  29  64 SE3       29.96F                  
MERRILL        FAIR      30  30  98 CALM      29.99F                  
$$
 
WIZ029-030-035-036-043>047-241000-
CENTRAL WISCONSIN
  
CITY           SKY/WX    TMP DP  RH WIND       PRES   REMARKS
WAUSAU         FAIR      38  35  89 SE6       29.97F WCI  33          
MOSINEE        FAIR      36  34  93 SE6       29.99F WCI  31          
MARSHFIELD     FAIR      41  35  79 SE6       29.97F                  
STEVENS POINT  FAIR      36  34  94 CALM      30.00S                  
WAUPACA        FAIR      38  36  92 CALM      30.01F                  
WAUTOMA        FAIR      36  35  96 CALM      30.01F                  
WISC RAPIDS    FAIR      40  34  79 CALM      29.99F                  
CAMP DOUGLAS   FAIR      34  34 100 SE3       29.98S                  
$$
 
WIZ011>013-019>022-031-037>040-048>050-241000-
NORTHEAST WISCONSIN
  
CITY           SKY/WX    TMP DP  RH WIND       PRES   REMARKS
ANTIGO         FAIR      36  32  87 S3        29.99F                  
SHAWANO        FAIR      35  29  80 CALM      30.01S                  
OCONTO         CLOUDY    31  31  99 CALM      30.02F VSB 1            
STURGEON BAY   FAIR      38  33  82 S3        30.03F                  
GREEN BAY      FAIR      38  34  85 CALM      30.02F                  
MANITOWOC      FAIR      32  30  92 CALM      30.03F                  
APPLETON       FAIR      37  30  75 SE3       29.99F                  
CLINTONVILLE   FAIR      35  32  88 CALM      30.01S                  
OSHKOSH        FAIR      39  34  82 S3        30.01F                  
$$
 
WIZ032>034-041-042-053>061-241000-
SOUTHWEST WISCONSIN
  
CITY           SKY/WX    TMP DP  RH WIND       PRES   REMARKS
LA CROSSE      FAIR      44  37  76 SE5       29.97S                  
SPARTA         FAIR      32  32  99 CALM      29.98F                  
VIROQUA        FAIR      46  36  66 SE5       29.97F                  
BOSCOBEL       FAIR      39  36  89 CALM      29.99S                  
PRAIRIE DU CHI FAIR      40  37  89 E3        29.99S                  
PLATTEVILLE    FAIR      50  37  59 S5        29.99R                  
$$

WIZ056-057-062-063-064-067-068-241000-
SOUTH CENTRAL WISCONSIN
  
CITY           SKY/WX    TMP DP  RH WIND       PRES   REMARKS
REEDSBURG      FAIR      39  39 100 CALM      29.99S                  
BARABOO/DELLS  FAIR      40  37  90 CALM      29.99S                  
LONE ROCK      FAIR      42  38  85 CALM      29.99S                  
MINERAL POINT  FAIR      48  36  61 CALM      29.98S                  
MADISON        FAIR      41  38  89 SE5       30.00F                  
MIDDLETON      FAIR      42  41  95 CALM      30.00F                  
WATERTOWN      FAIR      39  35  88 SE3       30.01S                  
MONROE         FAIR      44  36  75 MISG      29.99S                  
JANESVILLE     FAIR      41  41 100 E3        30.01R                  
$$
 
WIZ051-052-058>065-066-070>072-241000-
SOUTHEAST WISCONSIN
  
CITY           SKY/WX    TMP DP  RH WIND       PRES   REMARKS
MILWAUKEE      FAIR      40  32  73 CALM      30.02F                  
WAUKESHA       FAIR      36  32  87 CALM      30.03S                  
MILWAUKEE/TIMM FAIR      36  32  87 CALM      30.04S                  
RACINE         FAIR      39  33  79 E3        30.04F                  
KENOSHA        FAIR      36  36 100 E7        30.02F WCI  30          
FOND DU LAC    FAIR      38  33  82 S5        30.01F WCI  34          
SHEBOYGAN      FAIR      35  34  96 CALM      30.03F FOG              
WEST BEND      FAIR      34  34 100 CALM      30.02F                  
JUNEAU         FAIR      39  34  82 E6        30.01F WCI  35          
$$

LSZ147-162-241000-
LAKE SUPERIOR
  
STATION/POSITION TIME  TEMP    WIND        PRES    WAVE
                       AIR SEA DIR/SP/G            HT/PER
                 (UTC) (F)     (DEG/KT/KT) (MB)    (FT/S)
$$
 
LMZ867-665-643>646-241000-
LAKE MICHIGAN
  
STATION/POSITION TIME  TEMP    WIND        PRES    WAVE
                       AIR SEA DIR/SP/G            HT/PER
                 (UTC) (F)     (DEG/KT/KT) (MB)    (FT/S)
NORTHPORT PIER   0840   33        CALM     1016.6S
KEWAUNEE LAKESHO 0854   36     290/  1/  3 1015.8F
SHEBOYGAN LAKESH 0900   43     120/  2/  3 1017.2F
MILWAUKEE LAKESH 0900   42                   N/A
KENOSHA   LAKESH 0900   42      40/  4/  5 1016.9
$$

TC  - TEMPERATURE IN CELSIUS
VSB - VISIBILITY IN STATUTE MILES
WCI - WIND CHILL INDEX
HX  - HEAT INDEX